カタログに戻る

DMSP 5D-2 F13 DEB

運用中SSO
NORAD 40464·DEBRIS·🇺🇸 United States

打ち上げ Mar 24, 1995 から Vandenberg Space Force Base

Loading…

次のパス (今後24時間)

TLE

最新Source: Space-Track

元期: Sep 12, 2026, 00:26 UTC

1 40464U 95015BG  26255.01852030  .00001865  00000-0  10354-2 0  9992
2 40464  98.9364 181.1639 0081657  22.6167 337.8570 14.10723070587872

AllMySatでDMSP 5D-2 F13 DEBをリアルタイム追跡

Download on the App Store